Dewpoint
57 56 56 56 55 55 54 54 53 53 54 54 55 54 55 55 53 49 35 32 41 44 39 36 32 33 31 24 22 18 16 15 14 13 18 47 46 50 51 48 53 57 54 59 63
58 57 56 56 55 54 54 54 53 53 54 54 55 55 55 54 50 40 40 42 43 44 34 29 24 26 26 25 21 18 15 14 14 17 39 45 46 46 46 46 52 54 59 61 62
58 57 56 56 55 55 54 53 52 52 53 54 54 54 54 54 36 32 47 48 46 47 37 29 27 24 22 24 22 17 17 16 15 41 43 42 45 48 45 42 49 53 57 59 59
59 57 56 56 55 55 54 53 52 52 52 53 54 54 54 51 20 32 51 52 52 45 34 28 27 26 25 23 20 18 17 17 37 42 41 40 46 45 44 48 52 55 57 58 57
58 58 56 56 55 55 54 53 52 52 52 53 53 54 49 30 20 31 48 56 47 37 31 27 27 27 24 24 23 17 29 38 43 42 42 44 40 41 49 54 56 56 56 55 57
55 58 57 56 56 55 54 53 52 51 51 53 53 53 45 20 24 47 37 39 39 33 28 28 26 27 26 25 27 34 36 39 42 42 42 36 38 40 52 56 54 55 55 56 56
53 56 58 57 56 55 54 53 52 51 52 53 53 51 44 23 32 36 38 37 37 32 29 25 26 27 28 26 32 35 34 35 38 39 36 38 36 42 52 54 51 54 54 54 55
52 53 57 57 56 55 54 53 52 51 52 53 53 49 29 33 41 40 41 39 37 37 32 30 30 29 28 28 27 31 30 29 32 33 33 34 31 44 50 51 40 49 54 54 54
52 52 53 56 57 56 54 52 51 52 53 52 47 43 27 36 30 34 40 34 30 33 33 32 29 28 28 25 21 22 21 25 27 32 30 30 32 41 47 51 49 49 53 54 52
51 51 51 53 56 55 52 50 49 51 51 51 47 37 30 25 33 34 38 35 27 31 30 29 30 26 25 22 19 22 22 23 23 24 29 28 29 41 45 51 50 50 52 53 52
51 51 51 52 55 54 50 44 33 41 45 38 34 30 21 34 39 31 30 29 30 30 26 29 25 23 23 24 24 25 25 24 25 25 26 26 27 41 42 48 50 51 52 52 52
50 51 51 52 54 52 49 40 36 42 38 39 38 37 35 37 35 35 29 24 26 22 30 27 23 24 28 27 27 27 24 23 26 25 25 27 26 29 42 47 48 51 52 51 51
48 51 51 51 54 50 47 43 43 45 41 35 38 36 36 38 33 33 29 26 26 25 28 24 24 28 28 27 27 26 24 25 25 25 27 26 24 27 35 44 45 48 51 52 50
47 50 51 52 50 47 44 46 46 47 29 24 34 38 40 38 29 37 29 28 27 22 27 26 28 28 28 26 27 24 27 27 26 22 18 21 16 24 30 38 41 43 49 50 51
47 49 50 53 47 45 47 48 48 45 4 16 36 40 40 26 23 27 29 26 24 25 28 21 28 28 26 26 27 24 27 27 25 23 22 22 17 18 30 33 38 40 45 48 50
47 49 50 52 51 49 50 50 49 38 17 16 34 34 33 25 23 25 26 25 28 27 30 24 29 29 27 27 27 28 28 26 27 25 20 21 20 19 25 30 33 39 40 44 45
46 47 50 50 47 50 49 45 38 31 25 24 31 31 26 23 19 23 23 21 21 20 21 24 25 27 28 25 27 27 23 18 16 18 16 25 23 22 24 25 29 35 39 40 42
45 47 49 50 51 47 49 41 31 29 27 31 27 29 23 21 19 20 20 21 20 20 20 18 14 24 27 24 22 26 23 19 13 14 15 24 21 20 27 31 32 31 37 39 41
45 46 47 49 51 47 44 33 29 30 31 23 22 22 22 20 17 21 19 19 20 20 16 18 18 30 31 30 26 28 23 26 24 25 24 21 21 19 24 31 35 39 36 38 42
44 43 43 48 52 47 40 32 34 33 36 35 27 22 19 20 20 19 20 20 18 20 20 20 17 29 31 32 30 25 31 23 25 16 15 15 17 15 17 23 33 39 40 41 44
42 38 40 47 52 44 35 33 34 36 36 34 35 33 21 20 20 20 19 20 20 19 21 24 19 20 30 27 23 26 25 25 24 21 16 15 14 21 22 26 30 34 39 45 48
39 32 41 48 38 39 36 33 33 35 35 33 34 36 33 22 21 20 19 19 23 23 19 26 21 15 18 28 28 27 25 25 21 19 23 21 19 22 22 26 31 33 35 44 48
36 36 47 43 31 33 36 35 35 33 33 32 32 34 36 29 19 22 22 23 25 23 21 27 21 14 16 23 30 27 27 26 26 25 21 19 20 23 25 25 28 30 35 40 46
36 31 40 41 35 32 34 34 32 35 34 32 35 35 33 31 28 22 22 29 30 26 29 27 25 17 13 16 22 25 26 27 26 22 21 21 20 21 21 23 26 27 31 38 44
38 33 36 33 34 34 32 33 32 30 34 35 34 34 33 30 28 25 30 34 33 34 31 25 20 23 22 23 22 21 21 24 24 22 20 21 21 22 23 24 24 25 26 34 41
32 33 35 35 35 33 34 31 32 32 34 32 32 32 34 32 30 26 32 31 28 32 30 29 22 24 22 26 26 25 25 25 24 24 24 24 23 25 26 24 24 25 26 28 38
36 38 37 34 33 32 32 31 31 33 33 34 32 30 31 29 29 30 33 33 32 31 29 27 25 23 21 26 25 22 24 24 24 25 24 22 24 23 23 26 31 34 34 33 38
Wind_Speed
12 12 12 11 13 14 15 16 18 18 19 21 22 23 22 22 21 1 4 5 3 3 5 6 3 3 3 2 3 3 1 5 4 3 4 2 4 1 2 1 3 4 2 8 18
13 12 12 12 13 14 15 16 17 18 19 20 22 23 22 22 8 8 7 6 10 6 4 5 3 4 1 2 3 4 3 6 7 5 3 2 4 2 1 2 3 6 11 14 18
13 13 12 13 14 15 15 16 17 18 18 19 21 23 22 17 6 3 5 9 11 4 2 2 2 2 1 1 5 5 7 11 10 4 4 3 3 0 0 2 5 12 14 12 15
15 14 14 13 14 15 16 18 18 18 17 18 20 22 26 4 2 1 6 1 11 7 2 4 3 1 3 3 4 4 10 7 1 5 4 5 4 2 1 4 6 18 16 14 15
17 16 15 14 14 15 16 18 19 18 18 17 18 18 8 6 10 3 7 11 13 7 3 4 3 3 4 2 3 4 5 3 6 8 5 6 2 2 7 9 16 17 14 17 16
18 17 16 15 15 16 16 19 19 19 18 16 14 14 3 9 2 3 7 3 7 5 2 4 5 5 4 3 1 1 4 4 5 6 4 4 2 3 3 12 14 14 14 12 13
17 18 17 15 15 16 17 20 21 21 18 13 11 2 3 20 2 8 9 4 5 6 3 6 4 2 1 5 1 3 4 4 1 3 3 5 3 4 13 15 15 17 15 12 11
16 16 17 16 16 16 18 22 23 22 19 11 4 2 10 6 6 14 6 9 8 9 8 9 4 3 1 1 4 3 4 3 2 4 1 4 0 9 14 16 11 11 10 12 17
16 17 17 18 16 16 19 24 26 18 6 5 3 3 13 10 8 7 10 7 4 1 4 3 3 1 2 4 3 6 1 2 6 4 3 2 3 11 11 13 13 12 14 14 14
15 16 16 17 17 14 18 27 16 3 3 4 1 3 9 2 3 6 4 5 3 3 1 2 2 1 2 3 8 5 3 4 6 2 3 3 2 13 13 12 17 16 13 13 17
15 15 16 15 17 10 10 8 6 2 3 9 4 5 7 10 4 3 2 8 3 3 3 2 2 5 6 6 8 7 1 6 9 8 4 9 8 17 19 11 15 17 16 19 23
14 15 14 14 13 5 2 3 3 2 13 15 25 18 18 3 7 7 6 7 5 11 2 2 4 5 5 4 6 3 6 14 13 5 4 2 10 10 23 25 21 22 20 23 17
15 15 13 13 9 3 4 9 1 6 7 11 10 8 9 13 10 10 9 7 7 10 9 8 5 5 5 3 4 6 7 10 13 5 2 5 4 8 10 13 16 16 19 17 23
17 15 13 7 3 4 5 1 9 6 5 8 6 8 10 13 7 12 9 8 3 14 7 7 4 10 8 7 7 9 8 6 5 2 3 2 5 9 13 18 19 22 21 24 22
18 16 12 12 0 4 2 11 3 1 6 3 4 5 12 17 8 12 8 3 13 9 6 7 6 9 11 9 7 8 4 2 3 3 0 2 1 6 3 15 25 25 25 25 23
17 15 11 6 5 9 9 13 1 2 11 3 8 9 12 6 5 5 8 3 4 6 3 7 2 5 7 1 5 3 1 4 5 2 2 2 4 6 8 21 21 21 21 25 24
18 18 11 5 5 4 2 2 4 9 6 4 6 9 14 12 7 7 13 15 11 8 9 2 5 3 4 3 2 4 2 3 1 1 4 1 3 11 9 11 18 23 28 26 24
17 18 12 14 7 1 4 5 14 7 11 5 1 10 12 8 9 7 12 19 6 6 6 12 6 7 5 5 6 6 5 3 2 2 5 2 5 5 4 7 12 14 20 18 21
16 13 14 12 13 4 5 15 11 10 6 4 1 7 9 8 8 9 12 20 18 14 10 7 6 2 2 1 3 4 4 6 6 2 2 5 7 11 4 2 2 5 8 18 22
13 11 18 12 18 7 9 24 14 8 4 3 6 8 17 12 10 16 14 9 13 18 8 10 4 4 4 3 3 4 11 3 2 3 5 5 6 6 12 16 4 4 8 15 16
11 9 10 17 15 12 25 18 23 15 3 3 3 3 8 10 16 12 14 5 13 13 8 8 7 3 3 8 11 3 3 3 5 6 4 7 7 8 10 9 8 7 8 12 16
10 16 13 27 25 21 32 10 11 25 8 4 3 5 4 8 11 14 15 16 13 15 13 10 7 13 12 0 2 5 9 9 9 6 3 3 11 8 11 10 7 8 7 10 16
12 13 19 25 25 33 23 21 8 14 15 7 6 6 3 3 6 13 14 9 15 15 15 13 4 8 4 1 0 5 7 6 5 4 10 10 10 4 9 11 13 11 8 9 14
12 16 13 25 29 29 32 25 31 15 13 12 3 6 4 4 6 4 12 5 11 12 8 14 7 11 22 14 6 6 10 12 10 6 8 13 15 19 17 13 14 10 11 12 13
11 11 12 27 39 31 34 23 30 25 20 15 5 10 6 5 2 5 5 4 3 7 7 14 13 11 10 8 9 8 8 14 14 11 13 16 13 16 10 10 12 11 10 10 17
4 7 13 7 28 37 25 35 37 35 16 21 17 18 16 9 7 3 2 4 6 8 9 7 9 7 8 1 1 6 11 9 10 7 12 11 15 16 12 7 9 9 11 10 14
18 8 5 22 28 32 45 34 29 30 26 14 30 20 14 26 23 19 12 11 7 6 16 13 12 9 13 1 3 11 17 19 15 11 13 20 20 7 7 2 3 10 11 6 5
Wind_Direction
299 303 309 314 319 322 323 325 326 328 330 332 329 326 325 325 321 245 289 221 160 146 145 132 107 123 92 145 114 119 80 256 260 241 274 151 227 245 138 109 63 13 143 135 131
290 293 300 307 314 319 321 323 325 328 329 332 327 325 324 330 307 284 248 217 207 163 115 131 144 152 134 166 139 142 171 244 226 221 278 178 222 255 116 120 65 71 112 129 129
286 291 296 304 311 315 318 320 322 325 330 332 328 325 324 332 310 253 11 218 202 198 149 138 158 126 200 222 182 175 220 228 252 198 173 177 257 32 5 246 191 157 143 141 142
289 291 295 298 302 309 315 319 320 321 327 331 329 327 322 329 268 356 17 255 175 171 188 114 125 150 252 227 182 243 250 234 202 155 151 156 135 50 127 278 283 156 146 144 147
298 287 289 293 298 306 313 314 317 317 319 326 328 333 348 317 255 316 60 105 128 155 159 167 193 174 284 276 250 228 309 63 154 160 121 136 110 103 7 350 131 138 147 158 153
303 293 286 291 297 304 308 309 311 311 312 315 323 331 339 283 258 104 66 192 159 157 167 221 234 218 279 292 337 331 55 117 164 148 152 147 110 74 68 114 121 144 145 149 140
297 299 287 288 295 301 305 305 306 304 302 306 310 357 272 253 298 309 309 243 194 187 241 232 244 209 319 338 60 87 63 22 166 148 265 176 83 93 150 149 163 155 143 151 178
299 297 298 292 295 302 306 305 303 300 296 287 241 111 257 250 284 294 259 280 228 233 219 250 249 256 198 93 24 62 52 319 278 131 49 154 263 142 163 156 157 141 152 172 199
297 303 303 303 299 305 309 306 300 302 289 136 152 131 266 310 274 275 198 234 176 166 213 247 206 47 21 112 86 29 262 300 319 175 169 134 121 166 185 178 172 178 157 182 204
290 298 301 307 306 310 316 302 299 280 109 159 243 303 266 240 297 301 193 208 202 100 77 173 79 133 64 148 181 168 193 292 262 228 18 298 152 164 197 193 185 193 166 188 197
282 292 302 303 305 321 342 336 339 290 215 219 191 246 283 318 291 242 201 143 125 74 248 333 134 223 197 212 179 163 213 285 276 269 241 236 222 178 192 204 203 204 200 193 207
276 280 294 296 307 316 0 285 263 139 300 257 251 243 261 14 302 282 166 159 153 224 186 272 249 222 149 169 212 185 275 291 305 3 194 226 247 203 186 204 206 206 206 212 206
270 275 282 293 316 274 225 245 289 338 267 281 219 221 213 170 217 249 178 160 179 198 204 219 219 157 207 214 243 262 259 275 277 331 210 135 251 240 210 200 210 220 220 216 212
263 268 267 283 283 169 242 227 316 172 290 268 227 245 169 148 232 207 200 163 159 213 186 246 251 204 221 235 194 269 225 274 273 296 285 235 245 238 231 209 209 221 215 217 213
258 259 253 222 331 200 127 339 349 90 292 205 181 137 163 166 148 202 186 120 187 177 166 221 209 197 212 231 167 244 248 308 252 191 160 191 231 267 244 234 228 221 215 219 213
254 252 236 247 221 248 315 329 251 122 247 282 153 168 159 226 145 109 171 112 138 169 231 250 190 194 209 224 184 96 57 45 46 69 229 241 197 263 206 226 236 231 221 214 215
254 247 214 219 233 203 241 259 198 217 308 227 186 161 177 186 179 155 173 178 175 186 225 276 230 232 191 175 60 112 108 332 309 285 234 172 201 249 252 268 244 234 225 211 205
241 253 234 222 238 284 150 209 216 217 244 302 204 150 184 161 215 178 169 188 203 165 177 210 241 193 189 189 180 183 162 168 294 269 288 314 245 256 168 267 270 261 238 208 197
230 247 239 220 206 187 182 211 211 209 236 250 70 163 204 198 172 170 195 199 199 184 203 171 237 205 200 132 163 175 166 149 120 44 291 257 289 293 330 337 301 291 222 212 195
206 227 229 182 186 191 194 219 216 219 333 340 218 204 193 190 173 180 185 191 201 197 187 205 210 214 159 139 32 219 152 149 66 247 273 285 283 252 316 328 316 230 219 220 214
193 218 197 175 163 199 214 212 222 251 318 333 283 285 221 183 185 186 191 208 199 194 178 158 200 220 187 186 214 175 195 74 129 156 239 279 274 228 273 299 300 278 233 210 207
199 209 173 157 190 214 214 172 237 231 237 265 298 246 245 206 186 188 189 202 186 168 188 190 188 221 223 30 170 189 217 190 225 223 191 203 267 265 254 278 275 290 278 215 207
202 200 168 170 193 209 204 206 220 212 221 218 238 226 1 314 212 203 201 212 160 170 180 177 200 233 270 359 57 208 197 171 127 114 211 240 261 282 292 284 262 265 259 240 210
196 177 173 197 213 205 195 200 204 227 241 213 250 245 258 302 232 237 211 197 190 198 181 154 170 197 226 229 175 196 217 201 178 206 226 226 268 281 288 287 288 286 272 253 233
210 195 192 193 206 212 199 196 198 212 206 202 240 226 175 231 281 211 172 155 172 170 166 169 218 205 223 220 199 219 209 189 205 215 229 259 242 262 276 299 269 287 301 250 228
216 196 195 201 200 201 205 206 195 205 181 207 213 209 218 218 215 92 26 203 195 177 170 178 204 166 218 163 98 235 240 221 214 220 245 247 253 250 270 278 288 304 297 261 238
207 290 248 209 189 190 212 204 198 198 222 185 209 214 217 228 245 260 257 265 280 228 180 175 172 168 217 61 94 259 242 231 230 213 214 236 239 222 240 205 345 331 340 335 242